contact:dominique.lefevre@mio.osupytheas.fr, maurice.libes@osupytheas.fr, didier.mallarino@osupytheas.fr
Project:EMSO http://www.emso-fr.org/EMSO-France
Depth: 2436.0 m
Title:EMSO Ligure Ouest : Data MII capteur MICROCAT
DateTime_Computer,Latitude,Longitude,Temperature,Conductivity,Pressure,DateTime_Instrument
DateTime_Computer,Latitude,Longitude,degC,S m-1,dbar,DateTime_Instrument
2022-02-09T00:01:12Z,42.805,6.029,13.2995,4.60019,2470.25,2022-2-09T02:02:45Z
2022-02-09T00:04:15Z,42.805,6.029,13.2994,4.60024,2470.273,2022-2-09T02:05:49Z
2022-02-09T00:07:19Z,42.805,6.029,13.2990,4.60021,2470.227,2022-2-09T02:08:52Z
2022-02-09T00:10:22Z,42.805,6.029,13.2992,4.60020,2470.26,2022-2-09T02:11:55Z
2022-02-09T00:13:25Z,42.805,6.029,13.2996,4.60022,2470.25,2022-2-09T02:14:58Z
2022-02-09T00:16:28Z,42.805,6.029,13.2993,4.60019,2470.273,2022-2-09T02:18:01Z
2022-02-09T00:19:31Z,42.805,6.029,13.2996,4.60020,2470.264,2022-2-09T02:21:04Z
2022-02-09T00:22:34Z,42.805,6.029,13.2993,4.60020,2470.273,2022-2-09T02:24:07Z
2022-02-09T00:25:37Z,42.805,6.029,13.2998,4.60021,2470.25,2022-2-09T02:27:10Z
2022-02-09T00:28:40Z,42.805,6.029,13.2994,4.60020,2470.31,2022-2-09T02:30:13Z
2022-02-09T00:31:44Z,42.805,6.029,13.2990,4.60019,2470.287,2022-2-09T02:33:17Z
2022-02-09T00:34:47Z,42.805,6.029,13.2993,4.60020,2470.25,2022-2-09T02:36:20Z
2022-02-09T00:37:50Z,42.805,6.029,13.2993,4.60019,2470.273,2022-2-09T02:39:23Z
2022-02-09T00:40:53Z,42.805,6.029,13.2993,4.60019,2470.297,2022-2-09T02:42:26Z
2022-02-09T00:43:56Z,42.805,6.029,13.2993,4.60019,2470.297,2022-2-09T02:45:29Z
2022-02-09T00:46:59Z,42.805,6.029,13.2996,4.60022,2470.273,2022-2-09T02:48:32Z
2022-02-09T00:50:02Z,42.805,6.029,13.2991,4.60026,2470.297,2022-2-09T02:51:35Z
2022-02-09T00:53:05Z,42.805,6.029,13.2994,4.60020,2470.297,2022-2-09T02:54:38Z
2022-02-09T00:56:08Z,42.805,6.029,13.2995,4.60020,2470.287,2022-2-09T02:57:42Z
2022-02-09T00:59:12Z,42.805,6.029,13.2996,4.60019,2470.31,2022-2-09T03:00:45Z
2022-02-09T01:02:15Z,42.805,6.029,13.2992,4.60020,2470.31,2022-2-09T03:03:48Z
2022-02-09T01:05:18Z,42.805,6.029,13.2993,4.60025,2470.273,2022-2-09T03:06:51Z
2022-02-09T01:08:21Z,42.805,6.029,13.2992,4.60020,2470.334,2022-2-09T03:09:54Z
2022-02-09T01:11:24Z,42.805,6.029,13.2996,4.60021,2470.32,2022-2-09T03:12:57Z
2022-02-09T01:14:27Z,42.805,6.029,13.2993,4.60022,2470.297,2022-2-09T03:16:00Z
2022-02-09T01:17:30Z,42.805,6.029,13.2996,4.60019,2470.297,2022-2-09T03:19:03Z
2022-02-09T01:20:33Z,42.805,6.029,13.2997,4.60020,2470.32,2022-2-09T03:22:06Z
2022-02-09T01:23:36Z,42.805,6.029,13.2994,4.60022,2470.297,2022-2-09T03:25:10Z
2022-02-09T01:26:40Z,42.805,6.029,13.2997,4.60020,2470.334,2022-2-09T03:28:13Z
2022-02-09T01:29:43Z,42.805,6.029,13.2996,4.60023,2470.297,2022-2-09T03:31:16Z
2022-02-09T01:32:46Z,42.805,6.029,13.2998,4.60020,2470.334,2022-2-09T03:34:19Z
2022-02-09T01:35:49Z,42.805,6.029,13.2995,4.60021,2470.32,2022-2-09T03:37:22Z
2022-02-09T01:38:52Z,42.805,6.029,13.2996,4.60026,2470.297,2022-2-09T03:40:25Z
2022-02-09T01:41:55Z,42.805,6.029,13.2997,4.60020,2470.297,2022-2-09T03:43:28Z
2022-02-09T01:44:58Z,42.805,6.029,13.2994,4.60021,2470.32,2022-2-09T03:46:31Z
2022-02-09T01:48:01Z,42.805,6.029,13.2996,4.60028,2470.334,2022-2-09T03:49:35Z
2022-02-09T01:51:05Z,42.805,6.029,13.2998,4.60021,2470.32,2022-2-09T03:52:38Z
2022-02-09T01:54:08Z,42.805,6.029,13.2996,4.60021,2470.334,2022-2-09T03:55:41Z
2022-02-09T01:57:11Z,42.805,6.029,13.2996,4.60021,2470.32,2022-2-09T03:58:44Z
2022-02-09T02:00:14Z,42.805,6.029,13.2998,4.60021,2470.334,2022-2-09T04:01:47Z
2022-02-09T02:03:17Z,42.805,6.029,13.2996,4.60021,2470.32,2022-2-09T04:04:50Z
2022-02-09T02:06:20Z,42.805,6.029,13.2996,4.60024,2470.334,2022-2-09T04:07:53Z
2022-02-09T02:09:23Z,42.805,6.029,13.2998,4.60021,2470.297,2022-2-09T04:10:56Z
2022-02-09T02:12:26Z,42.805,6.029,13.2997,4.60021,2470.297,2022-2-09T04:13:59Z
2022-02-09T02:15:30Z,42.805,6.029,13.2995,4.60021,2470.31,2022-2-09T04:17:03Z
2022-02-09T02:18:33Z,42.805,6.029,13.2996,4.60026,2470.297,2022-2-09T04:20:06Z
2022-02-09T02:21:36Z,42.805,6.029,13.2991,4.60021,2470.25,2022-2-09T04:23:09Z
2022-02-09T02:24:39Z,42.805,6.029,13.2993,4.60021,2470.273,2022-2-09T04:26:12Z
2022-02-09T02:27:42Z,42.805,6.029,13.2996,4.60021,2470.273,2022-2-09T04:29:15Z
2022-02-09T02:30:45Z,42.805,6.029,13.2996,4.60021,2470.273,2022-2-09T04:32:18Z
2022-02-09T02:33:48Z,42.805,6.029,13.2993,4.60024,2470.26,2022-2-09T04:35:21Z
2022-02-09T02:36:51Z,42.805,6.029,13.2996,4.60021,2470.273,2022-2-09T04:38:24Z
2022-02-09T02:39:54Z,42.805,6.029,13.2993,4.60021,2470.287,2022-2-09T04:41:27Z
2022-02-09T02:42:58Z,42.805,6.029,13.2997,4.60023,2470.273,2022-2-09T04:44:31Z
2022-02-09T02:46:01Z,42.805,6.029,13.2998,4.60021,2470.273,2022-2-09T04:47:34Z
2022-02-09T02:49:04Z,42.805,6.029,13.2995,4.60021,2470.273,2022-2-09T04:50:37Z
2022-02-09T02:52:07Z,42.805,6.029,13.2998,4.60022,2470.264,2022-2-09T04:53:40Z
2022-02-09T02:55:10Z,42.805,6.029,13.2996,4.60023,2470.273,2022-2-09T04:56:43Z
2022-02-09T02:58:13Z,42.805,6.029,13.2995,4.60021,2470.264,2022-2-09T04:59:46Z
2022-02-09T03:01:16Z,42.805,6.029,13.2995,4.60021,2470.297,2022-2-09T05:02:49Z
2022-02-09T03:04:19Z,42.805,6.029,13.2996,4.60022,2470.264,2022-2-09T05:05:52Z
2022-02-09T03:07:22Z,42.805,6.029,13.2997,4.60021,2470.264,2022-2-09T05:08:56Z
2022-02-09T03:10:26Z,42.805,6.029,13.2996,4.60025,2470.25,2022-2-09T05:11:59Z
2022-02-09T03:13:29Z,42.805,6.029,13.2997,4.60026,2470.287,2022-2-09T05:15:02Z
2022-02-09T03:16:32Z,42.805,6.029,13.2996,4.60020,2470.297,2022-2-09T05:18:05Z
2022-02-09T03:19:35Z,42.805,6.029,13.2996,4.60021,2470.273,2022-2-09T05:21:08Z
2022-02-09T03:22:38Z,42.805,6.029,13.2997,4.60021,2470.306,2022-2-09T05:24:11Z
2022-02-09T03:25:41Z,42.805,6.029,13.2997,4.60021,2470.273,2022-2-09T05:27:14Z
2022-02-09T03:28:44Z,42.805,6.029,13.2999,4.60021,2470.297,2022-2-09T05:30:17Z
2022-02-09T03:31:47Z,42.805,6.029,13.2995,4.60021,2470.297,2022-2-09T05:33:20Z
2022-02-09T03:34:51Z,42.805,6.029,13.2993,4.60022,2470.31,2022-2-09T05:36:24Z
2022-02-09T03:37:54Z,42.805,6.029,13.2997,4.60029,2470.31,2022-2-09T05:39:27Z
2022-02-09T03:40:57Z,42.805,6.029,13.2998,4.60023,2470.297,2022-2-09T05:42:30Z
2022-02-09T03:44:00Z,42.805,6.029,13.2998,4.60023,2470.297,2022-2-09T05:45:33Z
2022-02-09T03:47:03Z,42.805,6.029,13.2994,4.60021,2470.297,2022-2-09T05:48:36Z
2022-02-09T03:50:06Z,42.805,6.029,13.2996,4.60022,2470.31,2022-2-09T05:51:39Z
2022-02-09T03:53:09Z,42.805,6.029,13.2995,4.60024,2470.31,2022-2-09T05:54:42Z
2022-02-09T03:56:12Z,42.805,6.029,13.2996,4.60026,2470.31,2022-2-09T05:57:45Z
2022-02-09T03:59:15Z,42.805,6.029,13.2995,4.60022,2470.31,2022-2-09T06:00:49Z
2022-02-09T04:02:19Z,42.805,6.029,13.2998,4.60026,2470.31,2022-2-09T06:03:52Z
2022-02-09T04:05:22Z,42.805,6.029,13.2996,4.60026,2470.297,2022-2-09T06:06:55Z
2022-02-09T04:08:25Z,42.805,6.029,13.2995,4.60023,2470.297,2022-2-09T06:09:58Z
2022-02-09T04:11:28Z,42.805,6.029,13.2996,4.60021,2470.343,2022-2-09T06:13:01Z
2022-02-09T04:14:31Z,42.805,6.029,13.2998,4.60022,2470.297,2022-2-09T06:16:04Z
2022-02-09T04:17:34Z,42.805,6.029,13.2998,4.60021,2470.32,2022-2-09T06:19:07Z
2022-02-09T04:20:37Z,42.805,6.029,13.2997,4.60029,2470.32,2022-2-09T06:22:10Z
2022-02-09T04:23:40Z,42.805,6.029,13.2997,4.60021,2470.31,2022-2-09T06:25:13Z
2022-02-09T04:26:44Z,42.805,6.029,13.2998,4.60021,2470.297,2022-2-09T06:28:17Z
2022-02-09T04:29:47Z,42.805,6.029,13.2996,4.60026,2470.273,2022-2-09T06:31:20Z
2022-02-09T04:32:50Z,42.805,6.029,13.2994,4.60022,2470.334,2022-2-09T06:34:23Z
2022-02-09T04:35:53Z,42.805,6.029,13.3000,4.60022,2470.297,2022-2-09T06:37:26Z
2022-02-09T04:38:56Z,42.805,6.029,13.2995,4.60023,2470.273,2022-2-09T06:40:29Z
2022-02-09T04:41:59Z,42.805,6.029,13.2995,4.60021,2470.273,2022-2-09T06:43:32Z
2022-02-09T04:45:02Z,42.805,6.029,13.2996,4.60021,2470.25,2022-2-09T06:46:35Z
2022-02-09T04:48:05Z,42.805,6.029,13.2996,4.60020,2470.297,2022-2-09T06:49:38Z
2022-02-09T04:51:08Z,42.805,6.029,13.2996,4.60026,2470.334,2022-2-09T06:52:42Z
2022-02-09T04:54:12Z,42.805,6.029,13.3004,4.60022,2470.287,2022-2-09T06:55:45Z
2022-02-09T04:57:15Z,42.805,6.029,13.2995,4.60021,2470.25,2022-2-09T06:58:48Z
2022-02-09T05:00:18Z,42.805,6.029,13.2998,4.60025,2470.297,2022-2-09T07:01:51Z
2022-02-09T05:03:21Z,42.805,6.029,13.2996,4.60021,2470.287,2022-2-09T07:04:54Z
2022-02-09T05:06:24Z,42.805,6.029,13.2996,4.60021,2470.25,2022-2-09T07:07:57Z
2022-02-09T05:09:27Z,42.805,6.029,13.2994,4.60022,2470.25,2022-2-09T07:11:00Z
2022-02-09T05:12:30Z,42.805,6.029,13.2999,4.60021,2470.227,2022-2-09T07:14:03Z
2022-02-09T05:15:33Z,42.805,6.029,13.2997,4.60022,2470.273,2022-2-09T07:17:06Z
2022-02-09T05:18:37Z,42.805,6.029,13.3003,4.60023,2470.273,2022-2-09T07:20:10Z
2022-02-09T05:21:40Z,42.805,6.029,13.2996,4.60022,2470.25,2022-2-09T07:23:13Z
2022-02-09T05:24:43Z,42.805,6.029,13.2991,4.60021,2470.273,2022-2-09T07:26:16Z
2022-02-09T05:27:46Z,42.805,6.029,13.2999,4.60022,2470.227,2022-2-09T07:29:19Z
2022-02-09T05:30:49Z,42.805,6.029,13.2996,4.60022,2470.273,2022-2-09T07:32:22Z
2022-02-09T05:33:52Z,42.805,6.029,13.2997,4.60021,2470.25,2022-2-09T07:35:25Z
2022-02-09T05:36:55Z,42.805,6.029,13.2993,4.60026,2470.25,2022-2-09T07:38:28Z
2022-02-09T05:39:58Z,42.805,6.029,13.2998,4.60022,2470.25,2022-2-09T07:41:31Z
2022-02-09T05:43:01Z,42.805,6.029,13.2993,4.60024,2470.297,2022-2-09T07:44:35Z
2022-02-09T05:46:05Z,42.805,6.029,13.3004,4.60021,2470.297,2022-2-09T07:47:38Z
2022-02-09T05:49:08Z,42.805,6.029,13.2996,4.60021,2470.32,2022-2-09T07:50:41Z
2022-02-09T05:52:11Z,42.805,6.029,13.2996,4.60023,2470.31,2022-2-09T07:53:44Z
2022-02-09T05:55:14Z,42.805,6.029,13.2991,4.60021,2470.297,2022-2-09T07:56:47Z
2022-02-09T05:58:17Z,42.805,6.029,13.2993,4.60021,2470.25,2022-2-09T07:59:50Z
2022-02-09T06:01:20Z,42.805,6.029,13.2998,4.60022,2470.287,2022-2-09T08:02:53Z
2022-02-09T06:04:23Z,42.805,6.029,13.2998,4.60024,2470.273,2022-2-09T08:05:56Z
2022-02-09T06:07:26Z,42.805,6.029,13.2994,4.60022,2470.273,2022-2-09T08:09:00Z
2022-02-09T06:10:30Z,42.805,6.029,13.3000,4.60021,2470.236,2022-2-09T08:12:03Z
2022-02-09T06:13:33Z,42.805,6.029,13.2995,4.60022,2470.273,2022-2-09T08:15:06Z
2022-02-09T06:16:36Z,42.805,6.029,13.2998,4.60022,2470.227,2022-2-09T08:18:09Z
2022-02-09T06:19:39Z,42.805,6.029,13.2998,4.60025,2470.264,2022-2-09T08:21:12Z
2022-02-09T06:22:42Z,42.805,6.029,13.2998,4.60022,2470.31,2022-2-09T08:24:15Z
2022-02-09T06:25:45Z,42.805,6.029,13.2995,4.60023,2470.287,2022-2-09T08:27:18Z
2022-02-09T06:28:48Z,42.805,6.029,13.2999,4.60026,2470.334,2022-2-09T08:30:21Z
2022-02-09T06:31:51Z,42.805,6.029,13.2994,4.60028,2470.25,2022-2-09T08:33:24Z
2022-02-09T06:34:55Z,42.805,6.029,13.2993,4.60021,2470.273,2022-2-09T08:36:28Z
2022-02-09T06:37:58Z,42.805,6.029,13.2996,4.60023,2470.273,2022-2-09T08:39:31Z
2022-02-09T06:41:01Z,42.805,6.029,13.2994,4.60026,2470.25,2022-2-09T08:42:34Z
2022-02-09T06:44:04Z,42.805,6.029,13.2999,4.60026,2470.264,2022-2-09T08:45:37Z
2022-02-09T06:47:07Z,42.805,6.029,13.2998,4.60021,2470.264,2022-2-09T08:48:40Z
2022-02-09T06:50:10Z,42.805,6.029,13.2996,4.60021,2470.25,2022-2-09T08:51:43Z
2022-02-09T06:53:13Z,42.805,6.029,13.2998,4.60023,2470.273,2022-2-09T08:54:46Z
2022-02-09T06:56:16Z,42.805,6.029,13.2997,4.60023,2470.287,2022-2-09T08:57:49Z
2022-02-09T06:59:19Z,42.805,6.029,13.2993,4.60024,2470.273,2022-2-09T09:00:53Z
2022-02-09T07:02:23Z,42.805,6.029,13.2994,4.60025,2470.287,2022-2-09T09:03:56Z
2022-02-09T07:05:26Z,42.805,6.029,13.2994,4.60021,2470.273,2022-2-09T09:06:59Z
2022-02-09T07:08:29Z,42.805,6.029,13.2993,4.60023,2470.297,2022-2-09T09:10:02Z
2022-02-09T07:11:32Z,42.805,6.029,13.2997,4.60021,2470.25,2022-2-09T09:13:05Z
2022-02-09T07:14:35Z,42.805,6.029,13.2997,4.60022,2470.273,2022-2-09T09:16:08Z
2022-02-09T07:17:38Z,42.805,6.029,13.2998,4.60035,2470.273,2022-2-09T09:19:11Z
2022-02-09T07:20:41Z,42.805,6.029,13.2996,4.60022,2470.287,2022-2-09T09:22:14Z
2022-02-09T07:23:44Z,42.805,6.029,13.2994,4.60025,2470.273,2022-2-09T09:25:17Z
2022-02-09T07:26:48Z,42.805,6.029,13.2996,4.60022,2470.273,2022-2-09T09:28:21Z
2022-02-09T07:29:51Z,42.805,6.029,13.2991,4.60022,2470.273,2022-2-09T09:31:24Z
2022-02-09T07:32:54Z,42.805,6.029,13.2998,4.60026,2470.273,2022-2-09T09:34:27Z
2022-02-09T07:35:57Z,42.805,6.029,13.2994,4.60026,2470.287,2022-2-09T09:37:30Z
2022-02-09T07:39:00Z,42.805,6.029,13.2993,4.60023,2470.32,2022-2-09T09:40:33Z
2022-02-09T07:42:03Z,42.805,6.029,13.2993,4.60024,2470.32,2022-2-09T09:43:36Z
2022-02-09T07:45:06Z,42.805,6.029,13.2993,4.60023,2470.297,2022-2-09T09:46:39Z
2022-02-09T07:48:09Z,42.805,6.029,13.2997,4.60022,2470.32,2022-2-09T09:49:42Z
2022-02-09T07:51:13Z,42.805,6.029,13.2996,4.60020,2470.31,2022-2-09T09:52:46Z
2022-02-09T07:54:16Z,42.805,6.029,13.2993,4.60022,2470.287,2022-2-09T09:55:49Z
2022-02-09T07:57:19Z,42.805,6.029,13.2998,4.60023,2470.273,2022-2-09T09:58:52Z
2022-02-09T08:00:22Z,42.805,6.029,13.3000,4.60022,2470.287,2022-2-09T10:01:55Z
2022-02-09T08:03:25Z,42.805,6.029,13.2996,4.60024,2470.297,2022-2-09T10:04:58Z
2022-02-09T08:06:28Z,42.805,6.029,13.3000,4.60021,2470.25,2022-2-09T10:08:01Z
2022-02-09T08:09:31Z,42.805,6.029,13.2996,4.60024,2470.297,2022-2-09T10:11:04Z
2022-02-09T08:12:34Z,42.805,6.029,13.2996,4.60022,2470.297,2022-2-09T10:14:07Z
2022-02-09T08:15:37Z,42.805,6.029,13.2998,4.60021,2470.297,2022-2-09T10:17:11Z
2022-02-09T08:18:41Z,42.805,6.029,13.2992,4.60023,2470.31,2022-2-09T10:20:14Z
2022-02-09T08:21:44Z,42.805,6.029,13.2993,4.60023,2470.31,2022-2-09T10:23:17Z
2022-02-09T08:24:47Z,42.805,6.029,13.2998,4.60023,2470.25,2022-2-09T10:26:20Z
2022-02-09T08:27:50Z,42.805,6.029,13.2996,4.60022,2470.297,2022-2-09T10:29:23Z
2022-02-09T08:30:53Z,42.805,6.029,13.2996,4.60022,2470.297,2022-2-09T10:32:26Z
2022-02-09T08:33:56Z,42.805,6.029,13.2996,4.60022,2470.287,2022-2-09T10:35:29Z
2022-02-09T08:36:59Z,42.805,6.029,13.2996,4.60026,2470.297,2022-2-09T10:38:32Z
2022-02-09T08:40:02Z,42.805,6.029,13.2996,4.60021,2470.273,2022-2-09T10:41:36Z
2022-02-09T08:43:06Z,42.805,6.029,13.2994,4.60022,2470.287,2022-2-09T10:44:39Z
2022-02-09T08:46:09Z,42.805,6.029,13.2993,4.60027,2470.25,2022-2-09T10:47:42Z
2022-02-09T08:49:12Z,42.805,6.029,13.2993,4.60023,2470.287,2022-2-09T10:50:45Z
2022-02-09T08:52:15Z,42.805,6.029,13.2992,4.60025,2470.25,2022-2-09T10:53:48Z
2022-02-09T08:55:18Z,42.805,6.029,13.2995,4.60024,2470.273,2022-2-09T10:56:51Z
2022-02-09T08:58:21Z,42.805,6.029,13.2995,4.60023,2470.25,2022-2-09T10:59:54Z
2022-02-09T09:01:24Z,42.805,6.029,13.2997,4.60022,2470.264,2022-2-09T11:02:57Z
2022-02-09T09:04:27Z,42.805,6.029,13.2997,4.60024,2470.227,2022-2-09T11:06:01Z
2022-02-09T09:07:31Z,42.805,6.029,13.2993,4.60021,2470.273,2022-2-09T11:09:04Z
2022-02-09T09:10:34Z,42.805,6.029,13.2997,4.60022,2470.273,2022-2-09T11:12:07Z
2022-02-09T09:13:37Z,42.805,6.029,13.2995,4.60022,2470.264,2022-2-09T11:15:10Z
2022-02-09T09:16:40Z,42.805,6.029,13.2993,4.60022,2470.25,2022-2-09T11:18:13Z
2022-02-09T09:19:43Z,42.805,6.029,13.2998,4.60021,2470.273,2022-2-09T11:21:16Z
2022-02-09T09:22:46Z,42.805,6.029,13.2993,4.60023,2470.25,2022-2-09T11:24:19Z
2022-02-09T09:25:49Z,42.805,6.029,13.2996,4.60024,2470.25,2022-2-09T11:27:22Z
2022-02-09T09:28:52Z,42.805,6.029,13.2998,4.60021,2470.273,2022-2-09T11:30:25Z
2022-02-09T09:31:56Z,42.805,6.029,13.2996,4.60025,2470.287,2022-2-09T11:33:29Z
2022-02-09T09:34:59Z,42.805,6.029,13.2993,4.60023,2470.273,2022-2-09T11:36:32Z
2022-02-09T09:38:02Z,42.805,6.029,13.2995,4.60025,2470.273,2022-2-09T11:39:35Z
2022-02-09T09:41:05Z,42.805,6.029,13.2998,4.60023,2470.287,2022-2-09T11:42:38Z
2022-02-09T09:44:08Z,42.805,6.029,13.2996,4.60024,2470.287,2022-2-09T11:45:41Z
2022-02-09T09:47:11Z,42.805,6.029,13.2993,4.60021,2470.297,2022-2-09T11:48:44Z
2022-02-09T09:50:14Z,42.805,6.029,13.2993,4.60023,2470.297,2022-2-09T11:51:47Z
2022-02-09T09:53:17Z,42.805,6.029,13.2995,4.60024,2470.31,2022-2-09T11:54:50Z
2022-02-09T09:56:21Z,42.805,6.029,13.2994,4.60027,2470.32,2022-2-09T11:57:54Z
2022-02-09T09:59:24Z,42.805,6.029,13.2991,4.60021,2470.297,2022-2-09T12:00:57Z
2022-02-09T10:02:27Z,42.805,6.029,13.2993,4.60023,2470.273,2022-2-09T12:04:00Z
2022-02-09T10:05:30Z,42.805,6.029,13.2996,4.60024,2470.287,2022-2-09T12:07:03Z
2022-02-09T10:08:33Z,42.805,6.029,13.2996,4.60024,2470.31,2022-2-09T12:10:06Z
2022-02-09T10:11:36Z,42.805,6.029,13.2993,4.60023,2470.25,2022-2-09T12:13:09Z
2022-02-09T10:14:39Z,42.805,6.029,13.2995,4.60022,2470.287,2022-2-09T12:16:12Z
2022-02-09T10:17:42Z,42.805,6.029,13.2993,4.60022,2470.297,2022-2-09T12:19:15Z
2022-02-09T10:20:45Z,42.805,6.029,13.2996,4.60022,2470.273,2022-2-09T12:22:19Z
2022-02-09T10:23:49Z,42.805,6.029,13.2995,4.60021,2470.297,2022-2-09T12:25:22Z
2022-02-09T10:26:52Z,42.805,6.029,13.2998,4.60023,2470.297,2022-2-09T12:28:25Z
2022-02-09T10:29:55Z,42.805,6.029,13.2996,4.60023,2470.297,2022-2-09T12:31:28Z
2022-02-09T10:32:58Z,42.805,6.029,13.2995,4.60025,2470.297,2022-2-09T12:34:31Z
2022-02-09T10:36:01Z,42.805,6.029,13.2993,4.60022,2470.297,2022-2-09T12:37:34Z
2022-02-09T10:39:04Z,42.805,6.029,13.2994,4.60022,2470.32,2022-2-09T12:40:37Z
2022-02-09T10:42:07Z,42.805,6.029,13.2995,4.60021,2470.273,2022-2-09T12:43:40Z
2022-02-09T10:45:10Z,42.805,6.029,13.2997,4.60026,2470.32,2022-2-09T12:46:44Z
2022-02-09T10:48:14Z,42.805,6.029,13.2995,4.60023,2470.297,2022-2-09T12:49:47Z
2022-02-09T10:51:17Z,42.805,6.029,13.2995,4.60023,2470.334,2022-2-09T12:52:50Z
2022-02-09T10:54:20Z,42.805,6.029,13.2996,4.60022,2470.31,2022-2-09T12:55:53Z
2022-02-09T10:57:23Z,42.805,6.029,13.2993,4.60023,2470.334,2022-2-09T12:58:56Z
2022-02-09T11:00:26Z,42.805,6.029,13.2999,4.60023,2470.334,2022-2-09T13:01:59Z
2022-02-09T11:03:29Z,42.805,6.029,13.2996,4.60022,2470.334,2022-2-09T13:05:02Z
2022-02-09T11:06:32Z,42.805,6.029,13.2996,4.60022,2470.334,2022-2-09T13:08:05Z
2022-02-09T11:09:35Z,42.805,6.029,13.2995,4.60024,2470.343,2022-2-09T13:11:09Z
2022-02-09T11:12:39Z,42.805,6.029,13.2994,4.60022,2470.32,2022-2-09T13:14:12Z
2022-02-09T11:15:42Z,42.805,6.029,13.2996,4.60023,2470.357,2022-2-09T13:17:15Z
2022-02-09T11:18:45Z,42.805,6.029,13.2993,4.60023,2470.334,2022-2-09T13:20:18Z
2022-02-09T11:21:48Z,42.805,6.029,13.2996,4.60023,2470.357,2022-2-09T13:23:21Z
2022-02-09T11:24:51Z,42.805,6.029,13.2997,4.60022,2470.32,2022-2-09T13:26:24Z
2022-02-09T11:27:54Z,42.805,6.029,13.3000,4.60021,2470.357,2022-2-09T13:29:27Z
2022-02-09T11:30:57Z,42.805,6.029,13.2993,4.60023,2470.366,2022-2-09T13:32:30Z
2022-02-09T11:34:00Z,42.805,6.029,13.2996,4.60023,2470.32,2022-2-09T13:35:33Z
2022-02-09T11:37:04Z,42.805,6.029,13.2997,4.60024,2470.32,2022-2-09T13:38:37Z
2022-02-09T11:40:07Z,42.805,6.029,13.2996,4.60022,2470.366,2022-2-09T13:41:40Z
2022-02-09T11:43:10Z,42.805,6.029,13.2996,4.60023,2470.366,2022-2-09T13:44:43Z
2022-02-09T11:46:13Z,42.805,6.029,13.2995,4.60023,2470.357,2022-2-09T13:47:46Z
2022-02-09T11:49:16Z,42.805,6.029,13.2999,4.60024,2470.343,2022-2-09T13:50:49Z
2022-02-09T11:52:19Z,42.805,6.029,13.2998,4.60022,2470.366,2022-2-09T13:53:52Z
2022-02-09T11:55:22Z,42.805,6.029,13.2998,4.60024,2470.366,2022-2-09T13:56:55Z
2022-02-09T11:58:25Z,42.805,6.029,13.2996,4.60023,2470.343,2022-2-09T13:59:59Z
2022-02-09T12:01:29Z,42.805,6.029,13.2996,4.60023,2470.334,2022-2-09T14:03:02Z
2022-02-09T12:04:32Z,42.805,6.029,13.2993,4.60022,2470.33,2022-2-09T14:06:05Z
2022-02-09T12:07:35Z,42.805,6.029,13.2996,4.60024,2470.343,2022-2-09T14:09:08Z
2022-02-09T12:10:38Z,42.805,6.029,13.2996,4.60025,2470.366,2022-2-09T14:12:11Z
2022-02-09T12:13:41Z,42.805,6.029,13.2993,4.60024,2470.343,2022-2-09T14:15:14Z
2022-02-09T12:16:44Z,42.805,6.029,13.2994,4.60023,2470.366,2022-2-09T14:18:17Z
2022-02-09T12:19:47Z,42.805,6.029,13.2993,4.60025,2470.334,2022-2-09T14:21:20Z
2022-02-09T12:22:50Z,42.805,6.029,13.2993,4.60024,2470.343,2022-2-09T14:24:23Z
2022-02-09T12:25:53Z,42.805,6.029,13.2999,4.60024,2470.357,2022-2-09T14:27:27Z
2022-02-09T12:28:57Z,42.805,6.029,13.2997,4.60025,2470.39,2022-2-09T14:30:30Z
2022-02-09T12:32:00Z,42.805,6.029,13.2996,4.60023,2470.38,2022-2-09T14:33:33Z
2022-02-09T12:35:03Z,42.805,6.029,13.2996,4.60024,2470.343,2022-2-09T14:36:36Z
2022-02-09T12:38:06Z,42.805,6.029,13.2999,4.60023,2470.32,2022-2-09T14:39:39Z
2022-02-09T12:41:09Z,42.805,6.029,13.2996,4.60025,2470.366,2022-2-09T14:42:42Z
2022-02-09T12:44:12Z,42.805,6.029,13.2996,4.60022,2470.334,2022-2-09T14:45:45Z
2022-02-09T12:47:15Z,42.805,6.029,13.2996,4.60022,2470.38,2022-2-09T14:48:48Z
2022-02-09T12:50:18Z,42.805,6.029,13.2997,4.60023,2470.343,2022-2-09T14:51:52Z
2022-02-09T12:53:22Z,42.805,6.029,13.2993,4.60024,2470.343,2022-2-09T14:54:55Z
2022-02-09T12:56:25Z,42.805,6.029,13.2995,4.60021,2470.334,2022-2-09T14:57:58Z
2022-02-09T12:59:28Z,42.805,6.029,13.2995,4.60023,2470.366,2022-2-09T15:01:01Z
2022-02-09T13:02:31Z,42.805,6.029,13.2997,4.60022,2470.366,2022-2-09T15:04:04Z
2022-02-09T13:05:34Z,42.805,6.029,13.2995,4.60021,2470.39,2022-2-09T15:07:07Z
2022-02-09T13:08:37Z,42.805,6.029,13.2995,4.60021,2470.366,2022-2-09T15:10:10Z
2022-02-09T13:11:40Z,42.805,6.029,13.2995,4.60022,2470.366,2022-2-09T15:13:13Z
2022-02-09T13:14:43Z,42.805,6.029,13.2998,4.60022,2470.366,2022-2-09T15:16:16Z
2022-02-09T13:17:47Z,42.805,6.029,13.2993,4.60022,2470.343,2022-2-09T15:19:20Z
2022-02-09T13:20:50Z,42.805,6.029,13.2997,4.60021,2470.343,2022-2-09T15:22:23Z
2022-02-09T13:23:53Z,42.805,6.029,13.2996,4.60023,2470.357,2022-2-09T15:25:26Z
2022-02-09T13:26:56Z,42.805,6.029,13.2996,4.60024,2470.366,2022-2-09T15:28:29Z
2022-02-09T13:29:59Z,42.805,6.029,13.2994,4.60023,2470.38,2022-2-09T15:31:32Z
2022-02-09T13:33:02Z,42.805,6.029,13.2996,4.60023,2470.39,2022-2-09T15:34:35Z
2022-02-09T13:36:05Z,42.805,6.029,13.2998,4.60023,2470.404,2022-2-09T15:37:38Z
2022-02-09T13:39:08Z,42.805,6.029,13.2998,4.60023,2470.38,2022-2-09T15:40:42Z
2022-02-09T13:42:12Z,42.805,6.029,13.2995,4.60023,2470.39,2022-2-09T15:43:45Z
2022-02-09T13:45:15Z,42.805,6.029,13.3000,4.60023,2470.38,2022-2-09T15:46:48Z
2022-02-09T13:48:18Z,42.805,6.029,13.2998,4.60023,2470.366,2022-2-09T15:49:51Z
2022-02-09T13:51:21Z,42.805,6.029,13.2997,4.60024,2470.366,2022-2-09T15:52:54Z
2022-02-09T13:54:24Z,42.805,6.029,13.2995,4.60023,2470.366,2022-2-09T15:55:57Z
2022-02-09T13:57:27Z,42.805,6.029,13.2998,4.60024,2470.334,2022-2-09T15:59:00Z
2022-02-09T14:00:30Z,42.805,6.029,13.2997,4.60022,2470.366,2022-2-09T16:02:03Z
2022-02-09T14:03:33Z,42.805,6.029,13.2999,4.60022,2470.343,2022-2-09T16:05:06Z
2022-02-09T14:06:36Z,42.805,6.029,13.2996,4.60023,2470.353,2022-2-09T16:08:10Z
2022-02-09T14:09:40Z,42.805,6.029,13.3001,4.60022,2470.38,2022-2-09T16:11:13Z
2022-02-09T14:12:43Z,42.805,6.029,13.2997,4.60023,2470.357,2022-2-09T16:14:16Z
2022-02-09T14:15:46Z,42.805,6.029,13.2998,4.60022,2470.39,2022-2-09T16:17:19Z
2022-02-09T14:18:49Z,42.805,6.029,13.2994,4.60023,2470.404,2022-2-09T16:20:22Z
2022-02-09T14:21:52Z,42.805,6.029,13.2998,4.60024,2470.366,2022-2-09T16:23:25Z
2022-02-09T14:24:55Z,42.805,6.029,13.2997,4.60024,2470.343,2022-2-09T16:26:28Z
2022-02-09T14:27:58Z,42.805,6.029,13.2998,4.60022,2470.366,2022-2-09T16:29:31Z
2022-02-09T14:31:01Z,42.805,6.029,13.2998,4.60023,2470.366,2022-2-09T16:32:35Z
2022-02-09T14:34:05Z,42.805,6.029,13.2998,4.60024,2470.343,2022-2-09T16:35:38Z
2022-02-09T14:37:08Z,42.805,6.029,13.3001,4.60023,2470.366,2022-2-09T16:38:41Z
2022-02-09T14:40:11Z,42.805,6.029,13.2996,4.60021,2470.38,2022-2-09T16:41:44Z
2022-02-09T14:43:14Z,42.805,6.029,13.2993,4.60024,2470.366,2022-2-09T16:44:47Z
2022-02-09T14:46:17Z,42.805,6.029,13.2999,4.60023,2470.32,2022-2-09T16:47:50Z
2022-02-09T14:49:20Z,42.805,6.029,13.2992,4.60023,2470.343,2022-2-09T16:50:53Z
2022-02-09T14:52:23Z,42.805,6.029,13.2998,4.60021,2470.343,2022-2-09T16:53:56Z
2022-02-09T14:55:26Z,42.805,6.029,13.2998,4.60021,2470.334,2022-2-09T16:57:00Z
2022-02-09T14:58:30Z,42.805,6.029,13.2996,4.60022,2470.38,2022-2-09T17:00:03Z
2022-02-09T15:01:33Z,42.805,6.029,13.2993,4.60021,2470.32,2022-2-09T17:03:06Z
2022-02-09T15:04:36Z,42.805,6.029,13.2998,4.60021,2470.32,2022-2-09T17:06:09Z
2022-02-09T15:07:39Z,42.805,6.029,13.2992,4.60022,2470.32,2022-2-09T17:09:12Z
2022-02-09T15:10:42Z,42.805,6.029,13.2993,4.60021,2470.31,2022-2-09T17:12:15Z
2022-02-09T15:13:45Z,42.805,6.029,13.2996,4.60021,2470.32,2022-2-09T17:15:18Z